Simultaneous Nadir Overpasses (SNOs) Predictions

Prediction of SNOs between NOAA-19 and NPP Satellite Orbit:

Table of predicted SNOs for the next 14.0 days since TLE Epoch: 10/8/2013
Index Date (NOAA-19) Time (NOAA-19) Lat,Lon (NOAA-19) SZA (NOAA-19 ) Date (NPP) Time (NPP) Lat,Lon (NPP) SZA (NPP ) Distance(km) Time Diff (sec)
1 10/17/2013 12:25:49 80.97, -59.92 93.50 10/17/2013 12:26:53 80.96, -59.80 93.45 2.10 64
2 10/17/2013 13:16:50 -80.96, 107.52 86.52 10/17/2013 13:17:37 -80.96, 107.55 86.55 0.36 47
3 10/17/2013 14:07:51 80.95, -84.95 93.46 10/17/2013 14:08:21 80.95, -84.83 93.43 2.16 30
4 10/17/2013 14:58:53 -80.95, 82.49 86.56 10/17/2013 14:59:06 -80.95, 82.51 86.57 0.38 13
5 10/17/2013 15:49:54 80.94,-109.99 93.42 10/17/2013 15:49:50 80.93,-109.86 93.40 2.22 4
6 10/17/2013
